Location: Cannifist
(18.2333°N, 63.0167°W)
Time: 08:32:26
(UTC+00:00)

Okean 1 - Pass Details

Date: 27 February 2020
Orbit: 538 x 556 km, 82.5° (Epoch: 07 April)

Event Time Altitude Azimuth Distance (km) Brightness Sun altitude
Rises 23:36:13 0° 355° (N) 2,696 6.9 -19.5°
Reaches altitude 10° 23:38:22 10° 354° (N) 1,800 6.0 -20.0°
Maximum altitude 23:42:20 87° 267° (W) 543 3.2 -20.9°
Drops below altitude 10° 23:46:16 10° 177° (S) 1,789 5.9 -21.8°
Sets 23:48:24 0° 177° (S) 2,677 6.8 -22.3°
